Regional Weather Roundup
Issued by NWS

Home | Current Version | Previous Version | Text Only | Print | Product List | Glossary On
Versions: 1 2 3 4 5 6 7 8 9 10 11 12 13 14 15 16 17 18 19 20 21 22 23 24 25 26 27 28 29 30 31 32 33 34 35 36 37 38 39 40 41 42 43 44 45 46 47 48 49 50
000
ASUS43 KMPX 241401
RWRMN
WEATHER ROUNDUP FOR MINNESOTA
NATIONAL WEATHER SERVICE TWIN CITIES/CHANHASSEN MN
900 AM CDT MON JUL 24 2017


NOTE: "FAIR" INDICATES FEW OR NO CLOUDS BELOW 12,000 FEET WITH NO
SIGNIFICANT WEATHER AND/OR OBSTRUCTIONS TO VISIBILITY. N/A MEANS
CURRENT SKY AND/OR WEATHER CONDITIONS ARE NOT AVAILABLE.

MNZ060>063-068>070-241500-
   Twin Cities Metro

CITY           SKY/WX    TMP DP  RH WIND       PRES   REMARKS
TWIN CITIES    SUNNY     66  58  75 E3        30.08R
ST PAUL        SUNNY     65  59  81 E7        30.09R
CRYSTAL        SUNNY     66  56  70 CALM      30.07S
BLAINE         MOSUNNY   66  61  82 SE3       30.08R
LAKEVILLE      SUNNY     63  63 100 CALM      30.09S
EDEN PRAIRIE   SUNNY     67  58  72 E3        30.07S
SOUTH ST PAUL  SUNNY     66  57  74 SE5       30.09S
LAKE ELMO      FAIR      64  59  82 E3        30.10R
$$
MNZ001>005-007-008-013>017-022>024-027-028-241500-
   Northwest Minnesota

CITY           SKY/WX    TMP DP  RH WIND       PRES   REMARKS
BEMIDJI        SUNNY     65  55  70 S7        30.06S
HALLOCK        SUNNY     68  64  88 S13       29.96F
ROSEAU         MOSUNNY   66  61  82 S10       30.02S
WARROAD        SUNNY     66  63  88 S7        30.03S
CROOKSTON      SUNNY     66  63  88 S13       30.00F
FOSSTON        SUNNY     66  61  82 S9        30.04S
DETROIT LAKES  SUNNY     68  57  68 S9        30.04F
MOORHEAD       CLOUDY    66  61  82 S9        30.00F
PARK RAPIDS    SUNNY     65  59  81 S8        30.06S
MAHNOMEN       FAIR      67  59  76 S9        30.03S
$$
MNZ006-009>011-018-025>026-241500-
   North Central Minnesota

CITY           SKY/WX    TMP DP  RH WIND       PRES   REMARKS
BAUDETTE       SUNNY     68  62  81 S10       30.04R
FLAG ISLAND    SUNNY     70  61  73 S6        30.00F HAZE
INTL FALLS     SUNNY     68  56  65 S7        30.07R
WASKISH        MOSUNNY   66  59  77 S3        30.06S
BIG FORK       SUNNY     66  57  72 S3        30.08R
LONGVILLE      SUNNY     63  57  82 SE8       30.08R
GRAND RAPIDS   SUNNY     62  56  80 S6        30.11R
CRANE LAKE     SUNNY     63  54  72 S5        30.10R
ORR            SUNNY     63  54  72 S3        30.07R
COOK           SUNNY     64  54  68 S5        30.09S
WALKER         FAIR      64  57  77 S6        30.06S
$$
MNZ012-019>021-037-241500-
   Northeast Minnesota

CITY           SKY/WX    TMP DP  RH WIND       PRES   REMARKS
DULUTH         FOG       58  58 100 SE7       30.10S VSB 1
ELY            SUNNY     64  52  63 S5        30.10R
HIBBING        SUNNY     59  56  89 SE7       30.10R
EVELETH        SUNNY     60  57  89 CALM      30.11R
DULUTH HARBOR  CLOUDY    57  55  94 CALM      30.12R
TWO HARBORS    SUNNY     63  57  82 CALM      30.09S
GRAND MARAIS     N/A     54  54 100 SW7       30.09S
G MARAIS ARPRT SUNNY     64  48  55 CALM      30.12F
$$
MNZ029>031-032-039>041-046>048-054>057-064-241500-
   West Central Minnesota

CITY           SKY/WX    TMP DP  RH WIND       PRES   REMARKS
FERGUS FALLS   CLOUDY    66  61  82 S14       30.03F
WHEATON        CLOUDY    64  61  88 SE9       30.04S
MORRIS         CLOUDY    68  61  77 SE10      30.04S
ALEXANDRIA     SUNNY     66  60  81 S10       30.09R
ELBOW LAKE     FAIR      66  62  86 SE13      30.05S
WADENA         SUNNY     64  61  88 S7        30.06S
GLENWOOD       SUNNY     64  61  88 S6        30.08S
APPLETON       CLOUDY    68  61  77 SE7       30.04S
BENSON         SUNNY     66  61  82 S8        30.07F
ORTONVILLE     MOSUNNY   64  61  88 SE5       30.04S
MADISON        MOSUNNY   70  64  83 SE7       30.04S
WILLMAR        FAIR      66  61  82 SE7       30.08S
$$
MNZ033>034-036-042>043-049>051-058-059-241500-
   Central Minnesota

CITY           SKY/WX    TMP DP  RH WIND       PRES   REMARKS
ST CLOUD       PTSUNNY   60  60 100 S6        30.09R
SAUK CENTRE    PTSUNNY   60  60 100 S7        30.09R
PAYNESVILLE    MOSUNNY   65  59  80 S7        30.09R
AITKIN         CLOUDY    57  55  94 SE7       30.09R
PINE RIVER     PTSUNNY   63  59  88 MISG      30.10S
BRAINERD       MOSUNNY   62  58  86 S7        30.08F
STAPLES        SUNNY     63  57  82 S7        30.08R
LONG PRAIRIE   FAIR      63  59  88 SE9       30.09R
LITTLE FALLS   CLOUDY    59  55  88 SE5       30.09R
LITCHFIELD     MOSUNNY   66  61  82 SE6       30.09R
BUFFALO        SUNNY     64  57  77 E5        30.09S
MAPLE LAKE     SUNNY     65  60  83 E3        30.09F
HUTCHINSON     SUNNY     65  60  84 SE6       30.09R
$$
MNZ037-044-045-052-053-241500-
   East Central Minnesota

CITY           SKY/WX    TMP DP  RH WIND       PRES   REMARKS
PRINCETON      MOSUNNY   61  61 100 CALM      30.09S
MORA           FOG       55  55 100 CALM      30.13R VSB 3/4
CAMBRIDGE      SUNNY     64  59  82 CALM      30.08R
RUSH CITY      CLOUDY    57  56  97 CALM      30.10R FOG
MOOSE LAKE     PTSUNNY   57  55  94 CALM      30.09R
HINCKLEY       FOG       55  55 100 CALM      30.11R VSB 1/4
CLOQUET        FOG       55  54  94 E3        30.11R VSB 1/2
MCGREGOR       CLOUDY    55  55 100 S5        30.11R
$$
MNZ071>073-080-081-089-090-097-098-241500-
   Southwest Minnesota

CITY           SKY/WX    TMP DP  RH WIND       PRES   REMARKS
MONTEVIDEO     SUNNY     70  61  73 S9        30.05S
GRANITE FALLS  SUNNY     67  61  80 SE7       30.07S
CANBY          SUNNY     68  63  84 CALM      30.05S
MARSHALL       HAZE      67  62  84 S8        30.05S VSB 3/4
REDWOOD FALLS  SUNNY     65  59  81 SE8       30.06F
OLIVIA         SUNNY     64  59  82 SE7       30.06S
PIPESTONE      SUNNY     66  63  88 S6        30.06R
WINDOM         SUNNY     66  59  77 SE6       30.07S
WORTHINGTON    SUNNY     66  60  81 SE6       30.07R
JACKSON        SUNNY     64  57  77 CALM      30.08S
SLAYTON        HVY RAIN  63  60  89 SE5       30.07S
$$
MNZ065>067-074>077-082>085-091>093-241500-
   South Central Minnesota

CITY           SKY/WX    TMP DP  RH WIND       PRES   REMARKS
MANKATO        MOSUNNY   65  59  81 E6        30.08S
NEW ULM        SUNNY     64  57  77 E6        30.07F
ST JAMES       SUNNY     64  61  88 E7        30.08F
FAIRMONT       SUNNY     65  60  84 E6        30.07F
GLENCOE        SUNNY     66  62  86 E7        30.07F
FARIBAULT      SUNNY     66  61  82 E3        30.09R
OWATONNA       SUNNY     66  61  82 E3        30.09R
WASECA         SUNNY     63  59  88 E6        30.09F
ALBERT LEA     SUNNY     64  59  82 E6        30.09R
$$
MNZ078>079-086>088-094>096-241500-
   Southeast Minnesota

CITY           SKY/WX    TMP DP  RH WIND       PRES   REMARKS
ROCHESTER      MOSUNNY   63  59  87 E5        30.10R
RED WING       SUNNY     66  55  68 SE7       30.08R
STANTON        SUNNY     66  60  79 E5        30.07F
DODGE CENTER   MOSUNNY   64  57  77 SE5       30.09R
WINONA         PTSUNNY   63  55  77 SE9       30.08S
AUSTIN         PTSUNNY   64  59  82 E3        30.09R
PRESTON        MOSUNNY   62  56  80 E5        30.09R
$$
ABBREVIATIONS USED IN REMARKS
   TC - TEMPERATURES IN CELSIUS
  WCI - WIND CHILL INDEX
   HX - HEAT INDEX
  VSB - VISIBILITY
$$




USA.gov is the U.S. government's official web portal to all federal, state and local government web resources and services.